Location: Newark
(48.8833°N, 0.9236°W)
Time: 12:38:06
(UTC+00:00)

Tiros 1 despin weight - Pass Details

Date: 20 November 2019
Orbit: 594 x 642 km, 48.2° (Epoch: 14 December)

Event Time Altitude Azimuth Distance (km) Brightness Sun altitude
Rises 14:29:30 0° 253° (WSW) 2,825 ? 12.7°
Reaches altitude 10° 14:31:47 10° 251° (WSW) 1,926 ? 12.5°
Maximum altitude 14:36:11 72° 168° (SSE) 632 ? 12.0°
Drops below altitude 10° 14:40:37 10° 84° (E) 1,948 ? 11.5°
Sets 14:42:56 0° 83° (E) 2,859 ? 11.3°
